Location: Newark
(50.0306°N, 2.3272°E)
Time: 02:55:37
(UTC+00:00)

A-11 Canister half - All Passes

Search period start: 12 December 2019 00:00
Search period end: 22 December 2019 00:00
Orbit: 1515 x 1685 km, 47.2° (Epoch: 10 December)

Date Brightness Start Highest point End Pass type
(mag) Time Alt. Az. Time Alt. Az. Time Alt. Az.
12 Dec - 09:22:37 10° SSE 09:28:10 17° SE 09:33:48 10° E daylight
12 Dec - 11:22:08 10° SW 11:31:07 47° SSE 11:40:26 10° ENE daylight
12 Dec - 13:25:43 10° WSW 13:35:25 75° S 13:45:28 10° E daylight
12 Dec - 15:30:24 10° W 15:40:12 70° SSW 15:50:16 10° ESE daylight
12 Dec - 17:35:21 10° WNW 17:44:19 39° SW 17:53:25 10° SSE visible
12 Dec - 19:43:40 10° WSW 19:47:05 12° WSW 19:50:30 10° SW visible
13 Dec - 09:00:18 10° SSE 09:05:23 16° SE 09:10:32 10° E daylight
13 Dec - 10:59:23 10° SW 11:08:15 45° SE 11:17:27 10° ENE daylight
13 Dec - 13:02:50 10° WSW 13:12:30 74° S 13:22:30 10° E daylight
13 Dec - 15:07:29 10° W 15:17:16 71° SSW 15:27:20 10° ESE daylight
13 Dec - 17:12:23 10° WNW 17:21:27 41° SW 17:30:39 10° SSE visible
13 Dec - 19:20:06 10° W 19:24:17 13° WSW 19:28:29 10° SSW visible
14 Dec - 08:38:04 10° SSE 08:42:36 14° SE 08:47:12 10° E daylight
14 Dec - 10:36:38 10° SSW 10:45:24 43° SE 10:54:28 10° ENE daylight
14 Dec - 12:39:57 10° WSW 12:49:34 73° SSE 12:59:33 10° E daylight
14 Dec - 14:44:34 10° W 14:54:21 72° SSW 15:04:24 10° ESE daylight
14 Dec - 16:49:27 10° WNW 16:58:34 43° SW 17:07:51 10° SSE visible
14 Dec - 18:56:42 10° W 19:01:30 15° SW 19:06:20 10° SSW visible
15 Dec - 08:15:57 10° SSE 08:19:51 13° ESE 08:23:47 10° E daylight
15 Dec - 10:13:54 10° SSW 10:22:33 41° SE 10:31:30 10° ENE daylight
15 Dec - 12:17:04 10° WSW 12:26:39 72° SSE 12:36:35 10° E daylight
15 Dec - 14:21:39 10° W 14:31:25 73° S 14:41:28 10° ESE daylight
15 Dec - 16:26:30 10° WNW 16:35:42 44° SW 16:45:04 10° SSE visible
15 Dec - 18:33:23 10° W 18:38:42 16° SW 18:44:04 10° SSW visible
16 Dec - 07:54:00 10° SE 07:57:05 12° ESE 08:00:11 10° ESE daylight
16 Dec - 09:51:11 10° SSW 09:59:42 40° SE 10:08:31 10° ENE daylight
16 Dec - 11:54:12 10° WSW 12:03:43 70° SSE 12:13:37 10° E daylight
16 Dec - 13:58:45 10° W 14:08:29 74° S 14:18:32 10° ESE daylight
16 Dec - 16:03:34 10° WNW 16:12:49 46° SSW 16:22:16 10° SE daylight
16 Dec - 18:10:09 10° W 18:15:54 17° SW 18:21:43 10° SSW visible
17 Dec - 07:32:28 10° SE 07:34:19 11° ESE 07:36:11 10° ESE daylight
17 Dec - 09:28:28 10° SSW 09:36:51 38° SE 09:45:31 10° E daylight
17 Dec - 11:31:20 10° WSW 11:40:49 69° SSE 11:50:40 10° E daylight
17 Dec - 13:35:51 10° W 13:45:33 75° S 13:55:36 10° ESE daylight
17 Dec - 15:40:38 10° WNW 15:49:55 48° SSW 15:59:26 10° SE daylight
17 Dec - 17:46:57 10° W 17:53:05 18° SW 17:59:18 10° SSW visible
18 Dec - 09:05:46 10° SSW 09:14:01 36° SE 09:22:32 10° E daylight
18 Dec - 11:08:29 10° WSW 11:17:54 68° SSE 11:27:43 10° E daylight
18 Dec - 13:12:56 10° W 13:22:38 75° S 13:32:38 10° ESE daylight
18 Dec - 15:17:42 10° WNW 15:27:02 50° SSW 15:36:36 10° SE daylight
18 Dec - 17:23:49 10° W 17:30:17 20° SW 17:36:50 10° S visible
19 Dec - 08:43:06 10° SSW 08:51:12 34° SE 08:59:32 10° E daylight
19 Dec - 10:45:37 10° WSW 10:55:00 66° SSE 11:04:45 10° E daylight
19 Dec - 12:50:03 10° W 12:59:42 76° S 13:09:42 10° ESE daylight
19 Dec - 14:54:47 10° W 15:04:09 51° SSW 15:13:45 10° SE daylight
19 Dec - 17:00:42 10° W 17:07:28 21° SW 17:14:20 10° S visible
20 Dec - 08:20:26 10° SSW 08:28:23 32° SE 08:36:32 10° E daylight
20 Dec - 10:22:46 10° WSW 10:32:06 65° SSE 10:41:48 10° E daylight
20 Dec - 12:27:08 10° W 12:36:46 76° S 12:46:45 10° ESE daylight
20 Dec - 14:31:52 10° W 14:41:15 53° SSW 14:50:55 10° SE daylight
20 Dec - 16:37:37 10° W 16:44:39 22° SW 16:51:48 10° S visible
21 Dec - 07:57:48 10° SSW 08:05:33 31° SE 08:13:31 10° E daylight
21 Dec - 09:59:56 10° WSW 10:09:12 63° SSE 10:18:50 10° E daylight
21 Dec - 12:04:14 10° W 12:13:50 77° S 12:23:47 10° E daylight
21 Dec - 14:08:57 10° W 14:18:22 55° SSW 14:28:03 10° SE daylight
21 Dec - 16:14:34 10° W 16:21:49 24° SW 16:29:13 10° S visible
